FENGYUN 1C DEB, 38519

Orbit data source: Space-Track

FENGYUN 1C DEB, 38519 is space debris in SSO originally from a launch on Mon, 10 May 1999 UTC launched from the Taiyaun Space Center, China (TSC). Fengyun 1C debris stems from the Chinese weather satellite Fengyun-1C, which was intentionally destroyed by a Chinese anti-satellite missile in 2007. This event dramatically increased the amount of space debris, with thousands of trackable fragments posing hazards to satellites and human spaceflight. The Fengyun 1C debris cloud has become a focal point in discussions about space sustainability and the need for international regulations to prevent the creation of new debris.

Loading next visibility...
Identifier
38519, 1999-025ETE
Orbit
SSO
Country
Flag of CNCN / PRC
Related business
Manufacturer
Unknown
Mission
Spacecraft
Bus & Motor
Unknown
Mass
Unknown
Launch date (UTC)
1999-05-10 (27 years ago)
Launch vehicle
Unknown
Launch site
Taiyaun Space Center, China (TSC)
Object type
Payload
Rocket body
Debris
Shape & HBR
Unknown shape, 1.1 m
Radar Cross Section
Medium (>0.1 m² and <1 m²)

Expand to show TLE details & history
Last TLE update: 5 days ago

TLE from 5 days ago
0 FENGYUN 1C DEB
1 38519U 99025ETE 26251.20258232  .00001602  00000-0  12167-2 0  9999
2 38519  99.5524 238.0440 0172752  44.8755 316.6221 13.88547336884762
Epoch: 2026-09-08T04:51Z
TLE epoch observation values (Epoch: 2026-09-08T04:51:43.112Z)
Latitude
-0.00009°
Longitude
177.84201°
Altitude
845.792 km
Speed
7.476 km/s
True Right ascension
15h 52m 10s
True Declination
0° 00' 00"
Sunlit
Object was in daylight at epoch
Visualization orbit readout
Latitude
Unknown
Longitude
Unknown
Altitude
Unknown
Speed
Unknown
Apparent Right ascension
Unknown
Apparent Declination
Unknown
Sunlit
N/A
Visualization observer readout
Local Sidereal Time
13:32:50
Azimuth
Unknown
Elevation
Unknown
Doppler factor
Unknown
Orbital elements
Apogee altitude
1,057.233 km
Perigee altitude
804.701 km
Semi-major axis
7,309.104 km
Eccentricity
0.01728
Inclination
99.5524°
RAAN
238.044°
Arg. of periapsis
44.8755°
True anomaly
315.24097°
Mean anomaly
316.6221°
Eccentric anomaly
315.93371°
Mean motion
3.47334 °/min
Orbital period
103.65 mins
BSTAR
0.0012167
Loading maneuver chart data...
Computing Atmospheric mass density...

Documentation

Showing up to 5 results
|